HULIANWANG DIGUI-135

导读

这颗名为HULIANWANG DIGUI-135的中国卫星,于2025年12月25日成功发射。它是中国低轨卫星互联网星座部署中的一颗重要节点,承担着拓展全球网络覆盖、提升互联网接入服务能力的使命,为偏远地区提供宽带连接,也进一步完善了中国天地一体化信息网络布局,推动卫星互联网产业发展迈出新步伐。

基本信息
目录编号:
67243
目录名称:
HULIANWANG DIGUI-135
国际标识:
2025-311H
轨道中心:
EARTH
卫星名称:
HULIANWANG DIGUI-135
卫星全名:
HULIANWANG DIGUI-135
卫星状态:
在轨 (已飞行178 天)
发射日期:
2025-12-25 UTC
国别 :
中国 (CN)
星等 :
--
轨道信息
数据来源 国际轨道数据 AOE轨道数据
星历时间 2026-06-20T04:50:14+0800
1天前
查看轨道信息
2026-06-18T18:00:00+0800
2天前
查看轨道信息
半长轴 7527.458km 7527.462km
偏心率 0.0001062 0.0000826
轨道倾角 50.002° 50.001°
近地点辐角 336.651° 316.612°
升交点赤经 106.276° 111.484°
平近点角 23.431° 292.687°
近地点 1148.521km 1148.703km
远地点 1150.121km 1149.947km
周期 108.326分钟 108.326分钟
每日圈数 13.293223 13.293213
详细信息
使用方式:
暂无
2D轨道图
3D轨道图
轨道高度分析图
轨道倾角分析图
轨道综合分析图
查看轨道综合分析图